Regional Weather Roundup
Issued by NWS

Home | Current Version | Previous Version | Text Only | Print | Product List | Glossary Off
Versions: 1 2 3 4 5 6 7 8 9 10 11 12 13 14 15 16 17 18 19 20 21 22 23 24 25 26 27 28 29 30 31 32 33 34 35 36 37 38 39 40 41 42 43 44 45 46 47 48 49 50

000
ASUS43 KLSX 281959
RWRMO

WEATHER SUMMARY FOR MISSOURI
NATIONAL WEATHER SERVICE SPRINGFIELD MO
200 PM CST SAT FEB 28 2015

NOTE: "FAIR" INDICATES FEW OR NO CLOUDS BELOW 12,000 FEET WITH NO
       SIGNIFICANT WEATHER AND/OR OBSTRUCTIONS TO VISIBILITY.
       CURRENT SKY AND/OR WEATHER CONDITIONS ARE NOT AVAILABLE FOR
       CHILLICOTHE AND FARMINGTON.

MOZ001>031-035>038-043-044-053-054-282100-
...NORTHERN AND WESTERN MISSOURI...

CITY           SKY/WX    TMP DP  RH WIND       PRES   REMARKS
KANSAS CTY INT LGT SNOW  21  17  84 SE6       30.42F VSB 1   WCI  13
KANSAS C DTWN  LGT SNOW  24  19  81 S5        30.45S WCI  18
LEE`S SUMMIT   SNOW      22  18  85 E5        30.43F VSB 1/2 WCI  16
ST JOSEPH      LGT SNOW  23  18  81 SE7       30.44F VSB 3/4 WCI  15
CHILLICOTHE      N/A     24  17  74 SE6       30.47F WCI  17
KIRKSVILLE     LGT SNOW  22  17  81 SE8       30.47F WCI  12

$$
MOZ066>068-077>081-088>096-101>105-282100-
...SOUTHWEST MISSOURI...

CITY           SKY/WX    TMP DP  RH WIND       PRES   REMARKS
SPRINGFIELD    SNOW      24  20  84 SE10      30.37F VSB 1/2 WCI  14
JOPLIN         SNOW      24  21  88 SE6       30.40F VSB 1/4 WCI  17

$$
MOZ032>034-039>042-045>050-055>058-069>072-282100-
...CENTRAL MISSOURI...

CITY           SKY/WX    TMP DP  RH WIND       PRES   REMARKS
COLUMBIA       LGT SNOW  24  20  84 SE7       30.46F VSB 3/4 WCI  16
JEFFERSON CITY SNOW      24  21  88 SE8       30.50F VSB 1/2 WCI  15
ROLLA          SNOW      23  19  85 SE7       30.43F VSB 1/2 WCI  15
SEDALIA        SNOW      24  19  81 SE8       30.45F VSB 1/2 WCI  15
OSAGE BEACH    CLOUDY    23  19  86 E5        30.45F VSB 1/2 WCI  17

$$
MOZ051-052-059>065-282100-
...EAST CENTRAL MISSOURI...

CITY           SKY/WX    TMP DP  RH WIND       PRES   REMARKS
ST LOUIS INTL  LGT SNOW  26  16  65 SE8       30.52F VSB 1   WCI  18
SPIRIT OF STL  LGT SNOW  25  18  74 E6        30.52F WCI  18
ST CHARLES     LGT SNOW  24  17  74 E7        30.53F WCI  16

$$
MOZ072>076-082>087-097>100-106>115-282100-
...SOUTH CENTRAL AND SOUTHEAST MISSOURI...

CITY           SKY/WX    TMP DP  RH WIND       PRES   REMARKS
CAPE GIRARDEAU CLOUDY    32  15  49 NE3       30.50F
FARMINGTON     CLOUDY    25  21  86 SE7       30.50F VSB 1   WCI  17
POPLAR BLUFF   CLOUDY    28  16  60 NE9       30.50F WCI  19
WEST PLAINS    LGT SNOW  23  19  85 E7        30.42F VSB 3/4 WCI  15

$$



USA.gov is the U.S. government's official web portal to all federal, state and local government web resources and services.